Location: Bergfeld
(52.0500°N, 11.7833°E)
Time: 20:03:54
(UTC+00:00)

Cosmos 2237 Rocket - Pass Details

Date: 17 February 2020
Orbit: 835 x 849 km, 71.0° (Epoch: 03 April)

Event Time Altitude Azimuth Distance (km) Brightness Sun altitude
Exits shadow 05:45:22 - 291° (WNW) 2,653 4.1 -6.8°
Reaches altitude 10° 05:46:14 10° 298° (WNW) 2,456 4.0 -6.6°
Maximum altitude 05:49:36 16° 335° (NNW) 2,067 3.9 -6.1°
Drops below altitude 10° 05:52:59 10° 12° (NNE) 2,460 4.6 -5.6°
Sets 05:56:29 0° 34° (NE) 3,398 5.6 -5.1°
